Flag for Turkey Weather past 2 weeks in Izmir, Turkey

Now
50 °F

Snow. Fog.


Feels Like: 49 °F
Forecast: 47 / 62 °F
Wind: 3 mph from South

Location: Izmir / Adnan Menderes

Current Time: Mar 1, 2015 at 1:30:37 AM

Latest Report: Mar 1, 2015 at 12:50 AM


Visibility: 2 mi

Pressure: 30.01 "Hg

Humidity: 94%

Dew point: 48 °F

Location of IzmirLocation

Historic Weather in Izmir — Graph

°F

Izmir temperature yesterday

Maximum temperature yesterday: 55 °F (at 2:20 PM)
Minimum temperature yesterday: 46 °F (at 2:20 AM)
Average temperature yesterday: 51 °F

Past Weeks' High & Low Weather Summary

 TemperatureHumidityPressure
High64 °F (Feb 26, 2:20 PM)100% (Feb 23, 1:20 PM)30.33 "Hg (Feb 23, 1:20 PM)
Low30 °F (Feb 18, 5:50 AM)37% (Feb 17, 12:50 PM)29.68 "Hg (Feb 27, 4:50 PM)
Average46 °F72%30.00 "Hg
* Reported Feb 14 12:20 AM — Mar 1 12:20 AM, Izmir, Weather by CustomWeather, © 2015

Note: Actual official high and low records may vary slightly from our data, if they occured in-between our weather recording intervals... More about our weather records

Advertising

Izmir weather history for previous 24 hours

 ConditionsComfort  
Time TempWeatherWind HumidityBarometerVisibility
12:20 AM
Sun, Mar 1
50 °FPartly cloudy.1 mph94%30.01 "Hg4 mi
11:50 PM
Sat, Feb 28
50 °FPartly cloudy.2 mph94%30.01 "Hg4 mi
10:50 PM50 °FPartly cloudy.3 mph94%30.01 "Hg4 mi
10:20 PM50 °FPartly cloudy.5 mph100%30.01 "Hg4 mi
9:50 PM50 °FPartly cloudy.3 mph100%29.98 "Hg4 mi
9:20 PM50 °FPartly cloudy.3 mph100%29.98 "HgN/A
8:50 PM50 °FPartly cloudy.3 mph94%29.98 "HgN/A
8:20 PM50 °FPartly cloudy.7 mph94%29.98 "HgN/A
7:50 PM50 °FPartly cloudy.6 mph94%29.95 "HgN/A
7:20 PM50 °FPartly cloudy.7 mph100%29.95 "HgN/A
6:50 PM52 °FPartly cloudy.6 mph94%29.95 "HgN/A
6:20 PM52 °FPartly cloudy.7 mph94%29.92 "HgN/A
5:50 PM52 °FSprinkles. Broken clouds.7 mph94%29.92 "HgN/A
5:20 PM54 °FSprinkles. Broken clouds.7 mph94%29.92 "HgN/A
4:50 PM54 °FSprinkles. Broken clouds.7 mph94%29.89 "HgN/A
4:20 PM54 °FSprinkles. Broken clouds.6 mph88%29.89 "HgN/A
3:50 PM54 °FSprinkles. Broken clouds.9 mph88%29.89 "HgN/A
3:20 PM55 °FSprinkles. Broken clouds.9 mph82%29.89 "HgN/A
2:50 PM55 °FSprinkles. Broken clouds.10 mph82%29.89 "HgN/A
2:20 PM55 °FBroken clouds.13 mph82%29.86 "HgN/A
1:50 PM54 °FBroken clouds.12 mph88%29.86 "HgN/A
1:20 PM54 °FBroken clouds.9 mph88%29.86 "HgN/A
12:50 PM54 °FBroken clouds.10 mph88%29.86 "HgN/A
12:20 PM52 °FSprinkles. Broken clouds.9 mph94%29.86 "HgN/A
11:50 AM52 °FSprinkles. Broken clouds.13 mph88%29.86 "HgN/A
11:20 AM52 °FSprinkles. Broken clouds.10 mph94%29.86 "HgN/A
10:50 AM52 °FSprinkles. Broken clouds.12 mph88%29.86 "HgN/A
10:20 AM52 °FBroken clouds.14 mph82%29.83 "HgN/A
9:50 AM54 °FBroken clouds.14 mph77%29.83 "HgN/A
9:20 AM52 °FBroken clouds.12 mph82%29.83 "HgN/A
8:50 AM52 °FBroken clouds.10 mph82%29.83 "HgN/A
8:20 AM52 °FBroken clouds.12 mph82%29.83 "HgN/A
7:50 AM48 °FBroken clouds.7 mph94%29.80 "HgN/A
7:20 AM48 °FBroken clouds.10 mph94%29.80 "HgN/A
6:50 AM48 °FSprinkles. Broken clouds.10 mph94%29.80 "HgN/A
6:20 AM48 °FSprinkles. Partly cloudy.9 mph94%29.77 "HgN/A
5:50 AM48 °FPartly cloudy.10 mph94%29.77 "HgN/A
5:20 AM48 °FSprinkles. Partly cloudy.13 mph94%29.77 "HgN/A
4:50 AM48 °FSprinkles. Partly cloudy.10 mph94%29.77 "HgN/A
4:20 AM48 °FSprinkles. Partly cloudy.8 mph94%29.77 "HgN/A
3:50 AM48 °FSprinkles. Partly cloudy.9 mph94%29.77 "HgN/A
3:20 AM48 °FSprinkles. Partly cloudy.7 mph94%29.77 "HgN/A
2:50 AM48 °FSprinkles. Partly cloudy.6 mph94%29.77 "HgN/A
2:20 AM46 °FSprinkles. Partly cloudy.5 mph93%29.77 "HgN/A
1:50 AM48 °FSprinkles. Partly cloudy.12 mph87%29.77 "HgN/A
1:20 AM48 °FSprinkles. Partly cloudy.9 mph87%29.77 "HgN/A
Weather by CustomWeather, © 2015

See weather overviewHow to use our weather pages